Hourly Data Report for September 29, 2017

All times are specified in Local Standard Time (LST). Add 1 hour to adjust for Daylight Saving Time where and when it is observed.

SUSSEX FOUR CORNERS
NEW BRUNSWICK

45°44'30.048" N
65°31'44.039" W
47.00 m
8105210
71656
ASF

Download Data

Hourly Data (September 2017)
Hourly Data Report for September 29, 2017
Temp Definition
°C
Dew Point Temp Definition
°C
Rel Hum Definition
%
Wind Dir Definition
10's deg

Wind Spd Definition
km/h
Visibility Definition
km
Stn Press Definition
kPa
Hmdx Definition


Wind Chill Definition


Weather Definition


TIME
00:00 9.1 4.6 73 29 15   100.07     LegendNANA
01:00 8.3 4.2 75 28 9   100.11     LegendNANA
02:00 8.0 4.2 77 29 10   100.10     LegendNANA
03:00 7.1 3.8 79 25 5   100.12     LegendNANA
04:00 6.7 3.7 81 27 8   100.15     LegendNANA
05:00 6.3 3.6 83 27 5   100.18     LegendNANA
06:00 6.2 3.3 82 27 5   100.24     LegendNANA
07:00 6.7 3.2 79 25 3   100.30     LegendNANA
08:00 8.7 3.7 71 30 8   100.37     LegendNANA
09:00 9.8 3.0 63 32 12   100.41     LegendNANA
10:00 10.4 2.7 59 33 19   100.45     LegendNANA
11:00 11.6 2.3 53 33 20   100.43     LegendNANA
12:00 12.1 2.6 52 34 20   100.47     LegendNANA
13:00 13.5 3.0 49 33 15   100.50     LegendNANA
14:00 13.0 2.4 49 31 13   100.52     LegendNANA
15:00 12.6 2.6 51 34 17   100.59     LegendNANA
16:00 11.9 2.7 53 34 14   100.66     LegendNANA
17:00 11.4 3.2 57 34 11   100.73     LegendNANA
18:00 10.3 3.6 63 32 5   100.81     LegendNANA
19:00 9.1 3.4 68 32 8   100.90     LegendNANA
20:00 8.9 4.0 71 32 9   100.99     LegendNANA
21:00 8.7 4.2 74 35 9   101.06     LegendNANA
22:00 8.8 3.9 72 34 12   101.10     LegendNANA
23:00 7.7 3.8 76 35 9   101.15     LegendNANA

Notes on Data Quality.

Legend

  • E = Estimated
  • M = Missing
  • NA = Not Available
  • ‡ = Partner data that is not subject to review by the National Climate Archives
Date modified: